Weather History for Kapuskasing, Ont., Ontario

Change the Weather History Date:

Wednesday, April 25, 2012

  Actual Average Record
Temperature  
Mean Temperature 36 °F -  
Max Temperature 47 °F 57 °F - ()
Min Temperature 26 °F 33 °F - ()
Degree Days  
Heating Degree Days 28    
Moisture  
Dew Point 28 °F    
Average Humidity 80    
Maximum Humidity 100    
Minimum Humidity 42    
Precipitation  
Precipitation 0.00 in 0.09 in - ()
Sea Level Pressure  
Sea Level Pressure 29.71 in    
Wind  
Wind Speed 8 mph ()    
Max Wind Speed 14 mph    
Max Gust Speed -    
Visibility 13.2 miles    
Events Snow    
T = Trace of Precipitation, MM = Missing Value Source: Averaged Metar Reports

Daily Weather History Graph

Daily Weather History Graph

Search for Another Location

Airport:

Trip Planner

Search our weather history database for the weather conditions in past years. The results will help you decide how hot, cold, wet, or windy it might be!

Date:

Astronomy

Apr. 25, 2012 Rise Set
Actual Time 6:17 AM EDT 8:38 PM EDT
Civil Twilight 5:42 AM EDT 9:14 PM EDT
Nautical Twilight 4:58 AM EDT 9:58 PM EDT
Astronomical Twilight 4:07 AM EDT 10:49 PM EDT
Moon 8:47 AM EDT (4/25) 12:10 AM EDT (4/25)
Length of Visible Light 15h 31m
Length of Day
14h 21m
Waxing Crescent, 16% of the Moon is Illuminated
Apr 25
Waxing Crescent
Apr 29
First Quarter
May 5
Full
May 12
Last Quarter
May 20
New

Hourly Weather History & Observations

Time (EDT) Temp. Windchill Dew Point Humidity Pressure Visibility Wind Dir Wind Speed Gust Speed Precip Events Conditions
12:00 AM 32.0 °F 24.2 °F 32.0 °F 100% 29.61 in 1.0 mi NW 9.2 mph - N/A Snow Light Snow
1:00 AM 32.0 °F 23.6 °F 32.0 °F 100% 29.62 in 1.0 mi WNW 10.4 mph - N/A Snow Light Snow
1:10 AM - - - N/A% - 3.0 mi WNW 11.5 mph - N/A   Unknown
2:00 AM 30 °F - 29 °F 93% 29.62 in 10 mi WNW 11.5 mph - - Snow Light Snow
2:00 AM 30.2 °F 20.8 °F 28.4 °F 93% 29.62 in 10.0 mi WNW 11.5 mph - N/A Snow Light Snow
2:18 AM - - - N/A% - 15.0 mi WNW 11.5 mph - N/A   Scattered Clouds
3:00 AM 28.4 °F 19.7 °F 26.6 °F 93% 29.62 in 15.0 mi WNW 9.2 mph - N/A   Scattered Clouds
4:00 AM 26.6 °F 16.8 °F 24.8 °F 93% 29.63 in 15.0 mi WNW 10.4 mph - N/A   Scattered Clouds
4:34 AM - - - N/A% - 15.0 mi WNW 11.5 mph - N/A   Mostly Cloudy
5:00 AM 26.6 °F 16.2 °F 24.8 °F 93% 29.65 in 15.0 mi West 11.5 mph - N/A   Mostly Cloudy
6:00 AM 26.6 °F 16.2 °F 24.8 °F 93% 29.67 in 15.0 mi NW 11.5 mph - N/A   Overcast
7:00 AM 26.6 °F 16.2 °F 24.8 °F 93% 29.69 in 10.0 mi WNW 11.5 mph - N/A   Overcast
8:00 AM 26 °F - 24 °F 90% 29.72 in 15 mi WNW 13.8 mph - -   Partly Cloudy
8:00 AM 26.6 °F 15.2 °F 24.8 °F 93% 29.72 in 15.0 mi WNW 13.8 mph - N/A   Overcast
9:00 AM 26.6 °F 20.0 °F 24.8 °F 93% 29.73 in 15.0 mi WNW 5.8 mph - N/A   Overcast
10:00 AM 28.4 °F 21.2 °F 24.8 °F 86% 29.75 in 15.0 mi West 6.9 mph - N/A   Overcast
11:00 AM 28.4 °F 18.5 °F 26.6 °F 93% 29.76 in 15.0 mi WSW 11.5 mph - N/A   Overcast
12:00 PM 30.2 °F 21.9 °F 26.6 °F 86% 29.77 in 15.0 mi WNW 9.2 mph - N/A   Overcast
1:00 PM 33.8 °F 29.6 °F 30.2 °F 87% 29.77 in 15.0 mi WNW 4.6 mph - N/A   Mostly Cloudy
2:00 PM 36 °F - 32 °F 80% 29.77 in 15 mi Calm Calm - -   Mostly Cloudy
2:00 PM 35.6 °F - 32.0 °F 87% 29.77 in 15.0 mi Calm Calm - N/A   Mostly Cloudy
3:00 PM 41.0 °F - 33.8 °F 76% 29.77 in 15.0 mi Calm Calm - N/A   Mostly Cloudy
4:00 PM 42.8 °F 41.1 °F 30.2 °F 61% 29.76 in 15.0 mi NE 3.5 mph - N/A   Mostly Cloudy
5:00 PM 46.4 °F 42.9 °F 26.6 °F 46% 29.75 in 15.0 mi West 6.9 mph - N/A   Scattered Clouds
6:00 PM 46.4 °F 45.2 °F 24.8 °F 43% 29.75 in 15.0 mi NW 3.5 mph - N/A   Mostly Cloudy
7:00 PM 46.4 °F - 24.8 °F 43% 29.75 in 15.0 mi Calm Calm - N/A   Scattered Clouds
8:00 PM 44 °F - 29 °F 42% 29.75 in 15 mi SE 3.5 mph - -   Scattered Clouds
8:00 PM 44.6 °F 43.1 °F 28.4 °F 53% 29.75 in 15.0 mi SE 3.5 mph - N/A   Mostly Cloudy
9:00 PM 41.0 °F 39.0 °F 30.2 °F 65% 29.75 in 15.0 mi ESE 3.5 mph - N/A   Mostly Cloudy
10:00 PM 39.2 °F 33.6 °F 30.2 °F 70% 29.75 in 15.0 mi ESE 8.1 mph - N/A   Scattered Clouds
11:00 PM 35.6 °F 29.9 °F 32.0 °F 87% 29.73 in 15.0 mi ESE 6.9 mph - N/A   Mostly Cloudy